Location: Mahannah Oil Field
(37.4664°N, 96.6003°W)
Time: 09:23:17
(UTC+00:00)

Courier 1B - Pass Details

Date: 29 January 2021
Orbit: 962 x 1209 km, 28.3° (Epoch: 02 March)

Event Time Altitude Azimuth Distance (km) Brightness Sun altitude
Rises 01:35:29 0° 203° (SSW) 3,985 11.1 -21.7°
Reaches altitude 10° 01:40:18 10° 177° (S) 2,969 10.0 -22.6°
Maximum altitude 01:43:11 13° 153° (SSE) 2,738 9.6 -23.2°
Enters shadow 01:43:49 12° 148° (SSE) 2,740 9.6 -23.3°
Drops below altitude 10° 01:46:00 10° 129° (SE) 2,898 - -23.8°
Sets 01:50:33 0° 102° (ESE) 3,794 - -24.7°
